Weather History for KGGP - October, 2013

Change the Weather History Date:

Monday, October 21, 2013

  Actual Average Record
Temperature  
Mean Temperature 44 °F -  
Max Temperature 53 °F 59 °F 53 °F (2013)
Min Temperature 35 °F 37 °F 35 °F (2013)
Degree Days  
Heating Degree Days 21    
Moisture  
Dew Point 37 °F    
Average Humidity 70    
Maximum Humidity 81    
Minimum Humidity 57    
Precipitation  
Precipitation 0.00 in - - ()
Sea Level Pressure  
Sea Level Pressure 29.92 in    
Wind  
Wind Speed 13 mph (WSW)    
Max Wind Speed 20 mph    
Max Gust Speed 30 mph    
Visibility 10 miles    
Events Rain    
Averages and records for this station are not official NWS values.
T = Trace of Precipitation, MM = Missing Value Source: NWS Daily Summary

Daily Weather History Graph

Daily Weather History Graph

Search for Another Location

Airport or City:

Trip Planner

Search our weather history database for the weather conditions in past years. The results will help you decide how hot, cold, wet, or windy it might be!

Date:

Astronomy

Oct. 21, 2013 Rise Set
Actual Time 8:03 AM EDT 6:55 PM EDT
Civil Twilight 7:35 AM EDT 7:23 PM EDT
Nautical Twilight 7:03 AM EDT 7:55 PM EDT
Astronomical Twilight 6:32 AM EDT 8:27 PM EDT
Moon 8:47 PM EDT (10/21) 10:38 AM EDT (10/21)
Length of Visible Light 11h 48m
Length of Day
10h 52m
Waning Gibbous, 93% of the Moon is Illuminated
Oct 21
Waning Gibbous
Oct 26
Last Quarter
Nov 3
New
Nov 10
First Quarter
Nov 17
Full

Hourly Weather History & Observations

Time (EDT) Temp. Windchill Dew Point Humidity Pressure Visibility Wind Dir Wind Speed Gust Speed Precip Events Conditions
12:15 AM 53.6 °F - 39.2 °F 58% 29.89 in 10.0 mi SSW 18.4 mph 24.2 mph N/A   Mostly Cloudy
12:35 AM 53.6 °F - 39.2 °F 58% 29.89 in 10.0 mi SSW 17.3 mph 24.2 mph N/A   Overcast
12:55 AM 53.6 °F - 39.2 °F 58% 29.89 in 10.0 mi SSW 18.4 mph 23.0 mph N/A   Mostly Cloudy
1:15 AM 53.6 °F - 39.2 °F 58% 29.89 in 10.0 mi SSW 19.6 mph 25.3 mph N/A   Scattered Clouds
1:35 AM 53.6 °F - 39.2 °F 58% 29.89 in 10.0 mi SW 18.4 mph 25.3 mph N/A   Mostly Cloudy
1:55 AM 53.6 °F - 39.2 °F 58% 29.89 in 10.0 mi SSW 19.6 mph 25.3 mph N/A   Mostly Cloudy
2:15 AM 53.6 °F - 39.2 °F 58% 29.89 in 10.0 mi SSW 17.3 mph 29.9 mph N/A   Mostly Cloudy
2:35 AM 53.6 °F - 39.2 °F 58% 29.89 in 10.0 mi SSW 15.0 mph 25.3 mph N/A   Mostly Cloudy
2:55 AM 53.6 °F - 39.2 °F 58% 29.89 in 10.0 mi SSW 18.4 mph 25.3 mph N/A   Scattered Clouds
3:15 AM 51.8 °F - 39.2 °F 62% 29.89 in 10.0 mi SSW 17.3 mph 20.7 mph N/A   Clear
3:35 AM 51.8 °F - 41.0 °F 67% 29.89 in 10.0 mi SSW 13.8 mph 20.7 mph N/A   Scattered Clouds
3:55 AM 50.0 °F - 41.0 °F 71% 29.88 in 10.0 mi SSW 13.8 mph - N/A   Scattered Clouds
4:15 AM 50.0 °F - 39.2 °F 66% 29.89 in 10.0 mi SW 10.4 mph 17.3 mph N/A   Clear
4:35 AM 48.2 °F - 41.0 °F 76% 29.89 in 10.0 mi SW 11.5 mph - N/A   Clear
4:55 AM 48.2 °F - 41.0 °F 76% 29.89 in 10.0 mi SW 11.5 mph - N/A   Clear
5:15 AM 48.2 °F - 39.2 °F 71% 29.89 in 10.0 mi SW 12.7 mph - N/A   Clear
5:35 AM 48.2 °F - 39.2 °F 71% 29.89 in 10.0 mi SSW 11.5 mph - N/A   Clear
5:55 AM 46.4 °F 41.5 °F 39.2 °F 76% 29.89 in 10.0 mi SSW 10.4 mph 16.1 mph N/A   Clear
6:15 AM 46.4 °F 41.1 °F 39.2 °F 76% 29.90 in 10.0 mi SSW 11.5 mph - N/A   Clear
6:35 AM 46.4 °F 41.5 °F 39.2 °F 76% 29.90 in 10.0 mi SSW 10.4 mph - N/A   Clear
6:55 AM 46.4 °F 41.9 °F 39.2 °F 76% 29.90 in 10.0 mi SSW 9.2 mph - N/A   Clear
7:15 AM 46.4 °F 42.4 °F 41.0 °F 81% 29.90 in 10.0 mi SSW 8.1 mph - N/A   Clear
7:35 AM 46.4 °F 42.9 °F 41.0 °F 81% 29.90 in 10.0 mi SSW 6.9 mph - N/A   Scattered Clouds
7:55 AM 46.4 °F 41.9 °F 41.0 °F 81% 29.91 in 10.0 mi SSW 9.2 mph - N/A   Scattered Clouds
8:15 AM 46.4 °F 41.5 °F 41.0 °F 81% 29.91 in 10.0 mi SW 10.4 mph - N/A   Scattered Clouds
8:35 AM 46.4 °F 41.9 °F 41.0 °F 81% 29.91 in 10.0 mi SW 9.2 mph - N/A   Clear
8:55 AM 46.4 °F 41.9 °F 41.0 °F 81% 29.91 in 10.0 mi SSW 9.2 mph - N/A   Clear
9:15 AM 50.0 °F - 41.0 °F 71% 29.92 in 10.0 mi SW 11.5 mph - N/A   Clear
9:35 AM 50.0 °F - 41.0 °F 71% 29.93 in 10.0 mi SW 12.7 mph - N/A   Clear
9:55 AM 50.0 °F - 41.0 °F 71% 29.92 in 10.0 mi SW 12.7 mph - N/A   Mostly Cloudy
10:15 AM 50.0 °F - 41.0 °F 71% 29.93 in 10.0 mi WSW 13.8 mph - N/A   Overcast
10:35 AM 50.0 °F - 41.0 °F 71% 29.93 in 10.0 mi WSW 9.2 mph - N/A   Overcast
10:55 AM 50.0 °F - 42.8 °F 76% 29.93 in 10.0 mi WSW 9.2 mph - N/A   Overcast
11:15 AM 50.0 °F - 42.8 °F 76% 29.93 in 10.0 mi WSW 13.8 mph - N/A   Overcast
11:35 AM 50.0 °F - 42.8 °F 76% 29.93 in 10.0 mi WSW 12.7 mph - N/A Rain Light Rain
11:55 AM 50.0 °F - 42.8 °F 76% 29.93 in 10.0 mi WSW 11.5 mph - N/A   Overcast
12:15 PM 50.0 °F - 42.8 °F 76% 29.93 in 10.0 mi WSW 11.5 mph - N/A   Overcast
12:35 PM 50.0 °F - 42.8 °F 76% 29.93 in 10.0 mi WSW 11.5 mph - N/A   Overcast
12:55 PM 50.0 °F - 42.8 °F 76% 29.93 in 10.0 mi WSW 9.2 mph - N/A   Overcast
1:15 PM 50.0 °F - 42.8 °F 76% 29.92 in 10.0 mi West 8.1 mph - N/A   Overcast
1:35 PM 50.0 °F - 42.8 °F 76% 29.92 in 10.0 mi West 9.2 mph 16.1 mph N/A   Light Drizzle
1:55 PM 48.2 °F - 41.0 °F 76% 29.92 in 10.0 mi West 9.2 mph - N/A   Overcast
2:15 PM 48.2 °F - 41.0 °F 76% 29.92 in 10.0 mi West 10.4 mph - N/A Rain Light Rain
2:35 PM 48.2 °F - 41.0 °F 76% 29.91 in 10.0 mi West 13.8 mph 18.4 mph N/A   Overcast
2:55 PM 50.0 °F - 39.2 °F 66% 29.91 in 10.0 mi West 10.4 mph 19.6 mph N/A   Overcast
3:15 PM 46.4 °F 41.5 °F 39.2 °F 76% 29.91 in 10.0 mi West 10.4 mph 16.1 mph N/A   Overcast
3:35 PM 46.4 °F 41.1 °F 39.2 °F 76% 29.91 in 10.0 mi West 11.5 mph 18.4 mph N/A   Overcast
3:55 PM 46.4 °F 41.1 °F 39.2 °F 76% 29.91 in 10.0 mi West 11.5 mph 16.1 mph N/A   Light Drizzle
4:15 PM 46.4 °F 40.1 °F 37.4 °F 71% 29.92 in 10.0 mi West 15.0 mph 18.4 mph N/A   Overcast
4:35 PM 46.4 °F 41.1 °F 37.4 °F 71% 29.92 in 10.0 mi West 11.5 mph 17.3 mph N/A   Overcast
4:55 PM 46.4 °F 40.7 °F 35.6 °F 66% 29.92 in 10.0 mi West 12.7 mph - N/A   Overcast
5:15 PM 46.4 °F 40.4 °F 33.8 °F 62% 29.92 in 10.0 mi West 13.8 mph 19.6 mph N/A   Mostly Cloudy
5:35 PM 46.4 °F 40.1 °F 33.8 °F 62% 29.93 in 10.0 mi West 15.0 mph 19.6 mph N/A   Scattered Clouds
5:55 PM 46.4 °F 42.4 °F 33.8 °F 62% 29.93 in 10.0 mi West 8.1 mph - N/A   Clear
6:15 PM 46.4 °F 41.5 °F 32.0 °F 57% 29.94 in 10.0 mi West 10.4 mph - N/A   Clear
6:35 PM 44.6 °F 40.2 °F 32.0 °F 61% 29.94 in 10.0 mi West 8.1 mph 17.3 mph N/A   Clear
6:55 PM 42.8 °F 37.5 °F 32.0 °F 66% 29.94 in 10.0 mi West 9.2 mph - N/A   Clear
7:15 PM 41.0 °F 35.8 °F 32.0 °F 70% 29.95 in 10.0 mi West 8.1 mph - N/A   Clear
7:35 PM 39.2 °F 34.2 °F 32.0 °F 75% 29.96 in 10.0 mi West 6.9 mph - N/A   Clear
7:55 PM 41.0 °F 36.4 °F 32.0 °F 70% 29.96 in 10.0 mi West 6.9 mph - N/A   Clear
8:15 PM 41.0 °F 35.8 °F 32.0 °F 70% 29.96 in 10.0 mi West 8.1 mph - N/A   Scattered Clouds
8:35 PM 41.0 °F 35.8 °F 32.0 °F 70% 29.96 in 10.0 mi West 8.1 mph - N/A   Overcast
8:55 PM 41.0 °F 37.1 °F 32.0 °F 70% 29.96 in 10.0 mi West 5.8 mph - N/A   Mostly Cloudy
9:15 PM 41.0 °F 33.5 °F 30.2 °F 65% 29.97 in 10.0 mi West 13.8 mph 19.6 mph N/A   Scattered Clouds
9:35 PM 41.0 °F 34.3 °F 28.4 °F 61% 29.98 in 10.0 mi WNW 11.5 mph 19.6 mph N/A   Clear
9:55 PM 39.2 °F 34.2 °F 28.4 °F 65% 29.98 in 10.0 mi WNW 6.9 mph - N/A   Clear
10:15 PM 37.4 °F 32.8 °F 26.6 °F 65% 29.99 in 10.0 mi WNW 5.8 mph - N/A   Clear
10:35 PM 35.6 °F 29.9 °F 28.4 °F 75% 29.99 in 10.0 mi West 6.9 mph - N/A   Clear
10:55 PM 35.6 °F 29.2 °F 28.4 °F 75% 30.00 in 10.0 mi West 8.1 mph - N/A   Clear
11:15 PM 35.6 °F 29.2 °F 26.6 °F 70% 30.01 in 10.0 mi West 8.1 mph - N/A   Clear
11:35 PM 35.6 °F 28.6 °F 26.6 °F 70% 30.00 in 10.0 mi West 9.2 mph - N/A   Clear
11:55 PM 35.6 °F 29.9 °F 26.6 °F 70% 29.99 in 10.0 mi WNW 6.9 mph - N/A   Clear